EHI
0 0 0 0 0 0 0 0 0 0 0 0 0 1 1 1 0 0 0 0 1 2 3 4 6 7 7 6 4 3 3 4 5 4 3 3 2 1 1 2 2 2 2
0 0 0 0 0 0 0 0 0 0 0 0 0 0 0 0 0 0 0 0 0 2 3 5 5 5 6 5 4 4 4 4 5 5 4 3 3 2 1 1 1 1 1
1 0 0 0 0 1 1 1 1 1 0 0 0 0 0 0 0 0 0 0 0 1 3 4 5 5 5 6 5 5 4 5 5 4 4 3 3 3 3 2 1 0 0
2 1 0 1 1 2 2 2 2 1 0 0 0 0 0 0 0 0 0 0 0 1 1 2 4 5 6 6 6 6 5 4 4 3 3 3 3 3 3 3 1 1 1
4 3 2 1 1 1 2 2 1 1 0 0 0 0 0 0 0 0 0 0 0 0 0 1 3 4 4 4 5 5 4 3 3 3 3 3 3 3 3 3 3 2 2
5 4 3 2 1 0 1 1 0 0 0 0 0 0 0 0 0 0 0 0 0 0 0 1 2 3 3 3 3 3 3 4 4 4 3 3 3 3 3 3 3 3 3
4 4 4 3 1 1 1 0 0 0 0 0 0 0 0 0 0 0 0 0 0 0 0 0 1 1 2 2 1 2 3 4 5 5 4 3 3 3 3 3 3 3 3
3 3 4 3 3 2 2 2 1 1 0 0 0 0 0 0 0 0 0 0 0 0 0 0 0 0 1 1 0 1 2 3 4 4 4 3 3 3 3 3 3 3 3
4 4 4 3 3 3 3 2 2 1 0 0 0 0 0 0 0 0 0 0 0 0 0 0 0 0 0 0 0 0 0 1 1 2 2 2 3 3 3 3 3 3 3
4 5 5 4 3 3 3 2 1 0 0 0 0 0 0 0 0 0 0 0 0 0 0 0 0 0 0 0 0 0 0 0 0 0 0 2 3 3 3 3 3 3 3
4 4 5 5 4 3 3 2 1 0 0 0 0 0 0 0 0 0 0 0 0 1 1 0 0 0 0 0 0 0 0 0 0 0 0 1 2 2 3 3 3 3 3
6 5 5 4 4 4 4 4 3 1 0 1 1 1 1 1 1 1 1 1 1 1 1 0 0 0 0 0 0 0 0 0 0 0 0 0 1 1 1 2 3 3 3
9 8 6 5 5 6 6 6 4 2 1 2 2 2 2 2 2 2 2 2 2 1 1 0 0 0 0 0 0 0 0 0 0 0 0 0 0 0 0 1 1 2 2
10 9 9 7 7 7 7 7 6 4 3 3 3 3 4 3 3 3 3 4 3 1 0 0 0 0 0 0 0 0 0 0 0 0 0 0 0 0 0 0 0 1 1
10 9 8 7 6 6 7 7 6 5 4 3 3 4 5 4 3 3 4 4 3 1 0 0 0 0 0 0 0 0 0 0 0 0 0 0 0 0 0 0 0 0 0
10 9 7 5 4 4 5 6 5 4 3 3 3 4 5 5 4 4 3 3 1 0 0 0 1 0 0 0 0 0 0 0 0 0 0 0 0 0 0 0 0 0 0
9 9 7 4 3 4 4 4 4 3 3 3 3 3 4 4 5 5 4 2 0 0 0 0 0 0 0 0 0 0 0 0 0 0 0 0 0 0 0 0 0 0 0
7 7 6 4 3 4 5 5 4 4 3 3 3 3 3 3 4 5 4 3 1 1 0 0 0 0 0 0 0 0 0 0 0 0 0 0 0 0 0 0 0 0 0
6 7 6 4 3 5 6 6 5 5 4 3 3 3 3 3 3 3 3 3 2 1 0 0 0 0 0 0 0 0 0 0 0 0 0 0 0 0 0 0 0 0 0
7 8 7 4 4 5 6 5 5 5 4 3 2 2 3 3 2 1 1 2 2 1 0 0 0 0 1 1 0 0 0 0 0 0 0 0 0 0 0 0 0 0 0
8 9 8 6 6 6 4 3 4 4 3 2 1 1 2 2 1 0 0 0 1 1 0 0 0 0 1 1 1 0 0 0 0 0 0 0 0 0 0 0 0 0 0
8 9 9 7 6 5 3 2 2 2 2 2 1 1 1 1 0 0 0 0 0 0 0 0 0 0 1 1 1 1 0 1 1 0 0 0 0 0 0 0 0 0 0
8 9 9 7 5 2 1 0 1 1 1 1 0 0 0 0 0 0 0 0 0 0 0 0 0 0 0 1 1 1 1 1 1 0 0 0 0 0 0 0 0 0 0
9 9 8 6 3 1 0 0 0 0 0 0 0 0 0 0 0 0 0 0 0 0 0 0 0 0 0 0 1 1 1 1 1 0 0 0 0 0 0 0 0 0 0
7 8 7 5 3 1 0 0 0 0 0 0 0 0 0 0 0 0 0 0 0 0 0 0 0 0 0 0 1 2 1 0 0 0 0 0 0 0 0 0 0 0 0
6 6 5 5 3 2 1 0 0 0 0 0 0 0 0 0 0 0 0 0 0 0 0 0 0 0 0 0 1 2 2 1 0 0 0 0 0 0 0 0 0 0 0
Wind_Speed
1 1 1 1 1 1 1 1 1 1 1 1 1 1 0 0 0 0 0 2 3 3 4 5 6 6 7 7 6 6 6 6 7 6 6 6 6 6 7 7 7 7 7
1 1 0 1 1 0 0 0 0 1 1 1 1 1 1 1 1 0 0 0 2 3 3 5 5 6 7 7 7 6 6 5 6 7 7 7 7 7 7 7 8 8 7
2 2 1 1 0 1 1 1 1 1 1 1 1 1 1 1 1 1 0 0 0 1 2 3 4 5 6 7 7 7 7 6 6 7 8 8 8 8 8 7 8 8 8
2 2 2 1 1 1 1 1 1 1 1 1 1 1 1 1 1 1 1 1 0 0 0 1 2 4 5 7 8 8 8 7 7 6 7 7 8 8 8 7 8 8 8
2 2 1 1 1 1 1 1 1 1 1 1 1 1 1 1 1 1 1 1 0 0 0 1 1 3 4 6 7 7 7 7 7 6 6 7 8 8 8 8 8 8 9
2 2 2 1 2 1 1 1 1 1 1 1 1 1 1 1 1 1 1 1 1 1 1 1 1 2 3 3 5 5 6 6 6 6 6 6 7 7 8 8 8 8 9
2 2 2 1 2 1 1 2 1 1 1 1 1 1 1 1 1 1 1 1 1 1 1 1 1 2 2 4 4 5 6 6 5 5 6 6 6 6 7 8 8 8 9
2 2 2 2 2 1 1 1 2 1 1 1 1 1 1 2 2 1 1 1 1 1 1 2 2 2 2 2 2 3 4 5 6 5 5 5 6 6 7 8 9 9 9
1 2 2 2 2 2 2 1 2 2 2 1 1 2 2 2 1 2 1 1 1 1 1 1 1 2 2 2 2 2 2 2 3 4 4 3 4 5 6 8 9 10 10
1 1 2 2 2 2 2 1 2 2 3 2 1 0 1 2 1 1 2 2 1 1 2 1 2 2 2 2 2 2 2 2 3 3 4 3 3 3 5 7 8 9 10
0 1 1 2 2 1 2 1 2 2 2 2 2 1 1 0 1 1 2 2 2 2 2 2 2 1 1 2 2 2 2 2 2 2 3 4 3 3 3 4 6 8 9
0 0 1 1 1 1 1 2 2 2 2 2 2 1 2 2 2 2 2 2 2 2 2 2 1 1 1 1 2 2 2 2 2 2 2 3 3 3 3 3 4 5 7
1 1 1 1 1 1 2 2 2 2 2 2 2 2 2 2 2 2 2 2 2 2 2 2 1 1 1 1 2 2 2 2 2 3 3 3 3 3 4 4 4 4 4
2 2 2 2 2 2 2 2 2 2 2 2 2 2 1 2 2 2 2 2 1 1 2 2 1 1 1 1 2 2 2 2 3 3 3 3 3 3 3 3 3 3 3
1 2 2 2 2 2 2 2 2 2 2 2 2 2 2 1 2 2 2 2 2 2 2 2 1 2 2 1 2 1 1 2 2 2 3 3 3 3 3 3 3 3 3
1 2 2 2 2 2 2 2 2 2 2 2 2 2 1 1 1 1 2 2 2 3 2 2 2 2 2 2 1 1 2 2 3 3 3 4 4 4 4 4 4 4 4
2 2 3 2 2 2 2 2 2 2 2 2 2 2 2 2 1 1 1 1 2 2 3 2 1 1 1 1 1 1 2 2 2 3 4 4 5 5 4 5 5 5 5
2 3 2 2 2 2 2 3 3 3 3 3 3 2 3 2 2 2 2 2 2 2 2 3 2 1 1 1 1 1 1 1 2 3 4 4 5 5 5 5 5 5 6
2 2 2 2 3 3 3 3 3 3 3 4 3 3 3 3 3 2 2 2 2 2 2 2 2 1 1 1 1 1 1 1 2 1 2 3 3 4 4 5 5 5 6
2 2 2 3 3 3 3 3 3 4 3 4 4 4 4 4 4 4 3 3 3 2 2 2 2 1 1 1 0 1 1 1 2 2 2 2 2 2 3 4 5 5 6
3 3 3 3 3 3 3 4 3 4 3 3 3 4 4 5 5 4 3 3 4 3 2 2 2 2 1 1 1 1 2 2 2 1 2 1 1 1 2 3 4 5 6
3 3 3 3 4 4 5 6 4 4 4 4 4 3 3 3 4 5 5 5 5 5 4 3 3 3 3 3 2 2 2 1 2 1 1 2 1 1 2 2 3 4 4
2 3 3 3 4 5 6 6 6 4 4 4 4 3 3 3 3 3 3 4 4 5 6 5 5 5 4 4 3 3 3 3 3 1 1 2 1 2 2 2 3 3 3
2 2 3 3 3 4 4 4 4 3 3 4 4 4 4 3 3 3 3 3 3 4 5 5 5 5 5 4 5 4 3 2 2 1 1 2 2 2 2 2 2 2 2
2 2 3 3 3 3 4 4 3 2 3 4 4 4 4 4 5 4 4 3 4 4 4 5 6 6 6 5 4 3 2 2 2 2 2 2 1 2 2 2 2 2 2
3 2 2 3 3 3 3 4 3 2 2 3 3 3 5 5 5 5 5 4 5 5 3 2 3 3 3 3 5 5 4 3 2 2 2 2 2 1 2 2 2 2 2
Wind_Direction
130 95 75 81 76 74 87 83 80 77 75 62 69 96 62 53 68 4 247 212 211 208 197 197 197 190 187 184 185 187 190 190 188 189 191 189 189 198 200 197 190 187 188
158 156 142 107 95 105 139 149 157 129 122 95 55 43 33 31 37 19 4 249 215 206 200 204 201 196 195 193 197 197 199 203 200 200 204 203 205 207 204 204 198 194 192
167 163 160 154 162 144 126 102 88 98 112 100 58 43 43 26 31 27 27 49 47 198 208 214 200 202 209 210 211 211 210 212 214 212 214 215 213 208 205 205 204 197 190
167 158 159 168 155 132 125 117 98 93 94 94 62 23 22 9 14 13 13 28 48 346 258 246 214 211 217 225 222 219 212 212 218 218 219 220 213 208 206 204 201 194 190
171 161 161 150 131 120 117 131 102 129 144 138 122 39 14 351 336 331 333 329 308 250 251 261 234 230 229 234 232 229 224 215 217 220 222 219 210 204 204 203 200 196 193
163 153 151 139 128 118 113 115 115 89 116 142 115 56 15 341 342 327 293 299 296 267 252 253 247 258 256 253 239 232 231 220 218 217 218 213 205 200 203 205 203 200 196
157 154 160 141 140 151 174 156 137 108 69 96 93 40 4 358 354 317 310 310 292 275 262 250 245 251 263 263 256 238 233 225 220 220 219 213 205 201 204 207 209 205 199
163 167 164 161 154 154 144 139 135 132 98 94 128 110 6 347 344 337 344 315 296 300 277 260 250 248 260 265 271 248 244 239 235 234 229 221 215 215 214 213 213 212 205
156 159 168 167 159 157 167 170 157 157 159 108 99 145 162 221 305 334 341 348 352 339 287 281 264 255 249 248 256 255 257 256 254 249 240 234 224 220 223 224 220 213 210
143 144 149 151 151 147 150 172 161 163 160 175 148 131 168 163 170 319 328 330 331 323 305 295 285 276 258 246 241 245 239 245 250 236 230 233 233 227 232 230 226 216 215
132 126 131 138 149 154 157 149 144 148 160 173 172 168 166 131 173 186 281 314 320 305 297 289 284 276 261 246 244 254 240 235 241 230 226 230 237 237 235 231 225 221 221
281 100 132 141 156 164 164 168 162 150 153 157 165 164 165 167 187 187 221 259 288 299 298 296 280 267 257 249 252 258 232 227 232 229 230 234 240 246 247 246 239 239 233
216 241 180 177 180 191 180 168 156 156 163 163 181 192 197 210 191 180 192 226 257 290 304 288 269 267 254 239 257 271 242 228 228 230 238 242 247 248 246 246 246 254 256
212 201 191 193 194 186 180 161 160 177 162 179 195 191 199 220 204 199 191 189 236 278 283 282 290 270 260 240 250 248 244 237 229 226 234 242 247 245 241 240 243 250 255
213 192 185 188 188 178 173 160 173 190 178 188 201 201 210 231 215 211 201 198 197 242 276 284 283 298 283 254 257 242 239 241 230 236 238 240 243 243 240 241 242 243 246
206 193 196 193 183 174 170 170 180 194 187 209 209 205 224 232 216 205 201 204 205 207 240 257 257 290 296 284 252 248 253 253 246 249 246 244 245 245 244 243 246 245 243
205 209 207 199 196 193 186 185 201 197 202 223 226 218 233 222 214 207 193 192 208 203 228 258 254 278 283 295 292 269 259 249 260 253 250 248 247 245 245 248 250 249 250
217 216 208 205 210 210 200 198 215 214 210 220 229 225 234 224 218 213 199 202 209 206 211 246 263 266 260 280 289 284 294 275 271 270 262 254 250 244 243 247 251 251 252
219 215 203 214 222 220 214 213 216 218 217 221 222 223 227 215 225 223 211 209 213 205 208 223 254 261 267 300 321 311 309 308 294 296 275 261 255 246 248 251 251 250 249
220 225 225 226 230 228 223 223 221 221 222 228 230 226 223 218 224 222 216 213 209 202 198 215 243 258 264 282 262 281 297 289 289 307 307 291 281 259 255 253 252 249 248
233 228 231 236 234 227 224 219 221 224 219 233 241 238 232 226 226 219 214 206 199 202 205 217 237 243 247 255 250 238 254 285 285 281 294 291 302 300 286 271 262 255 247
245 232 232 233 235 240 238 231 223 221 223 226 236 241 239 232 233 230 223 213 202 203 210 215 226 236 243 238 240 231 234 249 275 260 262 283 286 284 286 281 283 264 255
234 239 241 236 240 246 239 233 229 217 218 223 229 232 240 240 227 226 228 228 227 224 212 208 221 231 235 229 223 229 230 230 241 260 251 273 288 283 287 296 289 267 249
228 234 241 239 241 252 237 228 231 220 223 228 225 224 226 237 233 218 216 226 240 241 229 222 224 233 236 231 219 226 231 243 270 245 209 254 280 279 290 292 291 267 252
239 235 235 232 237 256 238 220 221 214 225 237 235 228 223 232 236 218 212 225 249 260 250 229 227 237 243 234 208 194 202 215 254 245 207 225 257 277 279 280 282 260 250
240 241 251 242 236 249 239 216 205 201 226 242 244 239 233 233 233 215 214 216 233 247 252 254 248 256 252 241 213 208 208 213 233 245 203 202 236 269 284 268 276 283 274